STARLINK-11185, 62588

Orbit data source: Space-Track

STARLINK-11185, 62588 is a payload satellite owned by SpaceX/Seattle (US) in LEO that was launched on Mon, 13 Jan 2025 UTC via an FALCON 9 launch vehicle from the Air Force Eastern Test Range (AFETR). Payloads include a variety of satellites, spacecraft, and rockets equipped with specific instruments for various scientific and technological missions. These include communications satellites like Starlink; space stations such as the ISS; scientific satellites like the Hubble; Earth observation satellites from companies like Planet Labs, Umbra, and HawkEye 360; GPS; miniature CubeSats for education and research; and military/defense satellites.

Loading next visibility...
STARLINK-11185 details
Identifier
62588, 2025-008B
Orbit
LEO
Last TLE update16 hours ago
Origin
Flag of USSpaceX/Seattle (US)
ManufacturerSpaceX/Seattle
MissionOperational spacecraft
Bus & MotorSTARLINK V2M, Unknown motor
Mass730 kg wet, ~700 kg dry
Launch date (UTC)
2025-01-13 (3 weeks ago)
Launch vehicle
FALCON 9
Launch site
Air Force Eastern Test Range (AFETR)
Object type
Payload
Rocket body
Debris
Shape & HBRUnknown
Radar Cross SectionLarge (>1 m²)

Expand to show TLE details & history

TLE from 16 hours ago
0 STARLINK-11185
1 62588U 25008B   25035.62909337  .00002776  00000-0  18806-4 0  9997
2 62588  42.9997   7.8842 0001564 273.3980  86.6711 15.77866134  4582
Epoch: 2025-02-04T15:05Z
Definitive object data (Epoch: 2025-02-04T15:05:53.667Z)
Latitude-0.00002°
Longitude6.37892°
Altitude336.197 km
Speed7.709 km/s
True Right ascension00h 31m 32s
True Declination0° 00' 00"
Sunlit
Object was in daylight at TLE epoch
Visualization TLE readout
Latitude22.98265°
Longitude155.47765°
Altitude336.799 km
Speed7.71 km/s
Apparent Right ascension13h 42m 50s
Apparent Declination-30° 01' 11"
Sunlit
Object is in full shadow
Visualization observer readout
Local Sidereal Time08:56:24
Azimuth124.229° SE
Elevation-6.403°
Doppler factor1
Orbital elements
Apogee altitude339.526 km
Perigee altitude337.425 km
Semi-major axis6,716.612 km
Eccentricity0.0001564
Inclination42.9997°
RAAN7.8842°
Arg. of periapsis273.398°
True anomaly86.68899°
Mean anomaly86.6711°
Eccentric anomaly86.68005°
Mean motion3.94292 °/min
BSTAR0.000018806
Orbital period91.3 mins
Loading maneuver chart data...
Loading historical data...
Loading historical data...
Loading historical data...
Loading historical data...
Loading historical data...
Loading historical data...
Loading historical data...

STARLINK-11185 Visibility forecast

Observer location: undefined°, undefined

Span
Click to sort rows by Start time (UTC) header in descending order
Start Az.
Max El. time (UTC)
Max El. Az.
Max El.
End time (UTC)
End Az.
4 mins2025-02-06 00:43:09.080Z201.537° SSW2025-02-06 00:45:09.080Z155.69° SSE20.253°2025-02-06 00:47:09.080Z101.485° ESE
4 mins2025-02-06 02:19:09.080Z261.974° W2025-02-06 02:21:09.080Z38.52° NE41.365°2025-02-06 02:23:09.080Z68.811° E
4 mins2025-02-06 03:55:09.080Z299.8° NW2025-02-06 03:57:09.080Z31.285° NE31.258°2025-02-06 03:59:09.080Z73.466° E
4 mins2025-02-06 05:31:09.080Z288.4° WNW2025-02-06 05:32:09.080Z288.607° WNW42.392°2025-02-06 05:35:09.080Z109.03° ESE
|